Regional Weather Roundup
Issued by NWS

Home | Current Version | Previous Version | Graphics & Text | Print | Product List | Glossary Off
Versions: 1 2 3 4 5 6 7 8 9 10 11 12 13 14 15 16 17 18 19 20 21 22 23 24 25 26 27 28 29 30 31 32 33 34 35 36 37 38 39 40 41 42 43 44 45 46 47 48 49 50

373
ASUS43 KTOP 130759
RWRKS

WEATHER ROUNDUP FOR KANSAS
NATIONAL WEATHER SERVICE GOODLAND KS
200 AM CST SAT FEB 13 2016

NOTE:  "FAIR" INDICATES FEW OR NO CLOUDS BELOW 12,000 FEET WITH NO
SIGNIFICANT WEATHER AND/OR OBSTRUCTIONS TO VISIBILITY.

KSZ001>006-013>018-027>032-041>047-130900-
NORTHWEST KANSAS

CITY           SKY/WX    TMP DP  RH WIND       PRES   REMARKS
GOODLAND       CLOUDY    27  25  92 S16       30.33F WCI  15
HAYS           CLOUDY    23  12  63 E7        30.48S
HILL CITY      CLOUDY    25  19  78 E9        30.46F
RUSSELL        CLEAR     21  16  81 E7        30.48F
$$

KSZ061>065-074>080-084>089-130900-
SOUTHWEST KANSAS

CITY           SKY/WX    TMP DP  RH WIND       PRES   REMARKS
DODGE CITY     CLOUDY    23  20  88 E8        30.40F
ELKHART          N/A     26  19  74 SE10        N/A  WCI  16
GARDEN CITY    CLOUDY    24  22  91 E8        30.37F
GREAT BEND     CLOUDY    23  12  63 E5        30.49S
LIBERAL        CLOUDY    27  21  80 E9        30.37S
$$

KSZ066>073-081>083-090>101-130900-
SOUTHEAST KANSAS

CITY           SKY/WX    TMP DP  RH WIND       PRES   REMARKS
CHANUTE        CLOUDY    27   8  44 NE12      30.54F WCI  17
COFFEYVILLE    CLOUDY    30  11  45 NE12      30.54F WCI  20
HUTCHINSON     CLOUDY    25  15  66 NE6       30.52R
MEDICINE LODGE   N/A     26  21  81 NE3       30.46F
NEWTON         CLOUDY    27  10  50 E9        30.52S
PARSONS        CLOUDY    30  12  47 NE8       30.55F
WICHITA INTL   CLOUDY    29  16  58 E9        30.50S
WICHITA JABRA  CLOUDY    26  14  60 NE8       30.50S
WINFIELD       CLOUDY    31  16  54 NE9       30.52R
$$

KSZ007>012-019>026-033>040-048>060-102>105-130900-
NORTHEAST KANSAS

CITY           SKY/WX    TMP DP  RH WIND       PRES   REMARKS
CONCORDIA      CLOUDY    21  13  71 E9        30.54F
EMPORIA        CLOUDY    23   9  55 NE15      30.54F WCI  10
LAWRENCE       CLOUDY    20   7  57 N8        30.61F
MANHATTAN      CLOUDY    22  10  60 NE10      30.58F WCI  11
OLATHE IND     CLOUDY    20   7  57 N9        30.60R
OLATHE EXE     CLOUDY    19   3  49 NE9       30.59R
SALINA         CLOUDY    26  14  60 NE7       30.55S
TOPEKA BILLARD CLOUDY    20   0  41 N8        30.61F
TOPEKA FORBES  CLOUDY    21   3  45 NE9       30.58F
$$




USA.gov is the U.S. government's official web portal to all federal, state and local government web resources and services.